QTR1171 OERK-OTHH

Flight info

Callsign QTR1171
Flight time N/A
Altitude 33000
Route OTALI M440 SITER DCT LADBO/N0462F290 T142 LAEEB
Aircraft B77W/H-SDE1E2E3FGHIJ2J3J4J5M1RWXY/LB1D1

Departure

Time 2026-04-29 12:55
Airport King Khalid International Airport (OERK)

Arrival

Time N/A
Airport Hamad International Airport (OTHH)
Time Latitude Longitude Altitude Speed Heading
2026-04-29 12:43 24.95954 46.70525 2043 ft 0 kts 239°
2026-04-29 12:48 24.95951 46.70520 2042 ft 3 kts 238°
2026-04-29 12:48 24.95943 46.70506 2042 ft 0 kts 60°
2026-04-29 12:49 24.95941 46.70502 2042 ft 0 kts 60°
2026-04-29 12:49 24.96000 46.70607 2035 ft 0 kts 328°
2026-04-29 12:50 24.96000 46.70606 2035 ft 0 kts 328°
2026-04-29 12:50 24.96004 46.70604 2035 ft 1 kts 328°
2026-04-29 12:50 24.96012 46.70598 2036 ft 2 kts 329°
2026-04-29 12:51 24.96026 46.70589 2043 ft 3 kts 329°
2026-04-29 12:51 24.96073 46.70558 2043 ft 15 kts 329°
2026-04-29 12:51 24.96205 46.70476 2043 ft 28 kts 332°
2026-04-29 12:51 24.96389 46.70362 2042 ft 30 kts 330°
2026-04-29 12:52 24.96570 46.70248 2037 ft 30 kts 330°
2026-04-29 12:52 24.96753 46.70136 2040 ft 30 kts 330°
2026-04-29 12:52 24.96879 46.70051 2042 ft 18 kts 328°
2026-04-29 12:52 24.96995 46.69977 2043 ft 24 kts 330°
2026-04-29 12:53 24.97171 46.69868 2039 ft 30 kts 331°
2026-04-29 12:53 24.97345 46.69759 2037 ft 22 kts 330°
2026-04-29 12:53 24.97437 46.69763 2038 ft 11 kts 44°
2026-04-29 12:53 24.97482 46.69839 2042 ft 18 kts 63°
2026-04-29 12:54 24.97582 46.70042 2043 ft 36 kts 59°
2026-04-29 12:54 24.97557 46.70280 2043 ft 40 kts 141°
2026-04-29 12:54 24.97228 46.70492 2043 ft 68 kts 150°
2026-04-29 12:54 24.96751 46.70796 2044 ft 90 kts 149°
2026-04-29 12:55 24.96016 46.71259 2041 ft 158 kts 148°
2026-04-29 12:55 24.94934 46.71948 2340 ft 191 kts 149°
2026-04-29 12:55 24.93748 46.72732 3305 ft 208 kts 146°
2026-04-29 12:55 24.92564 46.73700 4371 ft 224 kts 137°
2026-04-29 12:56 24.91312 46.74919 4884 ft 254 kts 137°
2026-04-29 12:56 24.89969 46.76242 5816 ft 262 kts 133°
2026-04-29 12:56 24.89022 46.77976 6775 ft 268 kts 107°
2026-04-29 12:56 24.88769 46.80052 7728 ft 281 kts 90°
2026-04-29 12:57 24.89179 46.82196 8633 ft 294 kts 71°
2026-04-29 12:57 24.90056 46.84285 9582 ft 306 kts 65°
2026-04-29 12:57 24.91062 46.86401 10455 ft 319 kts 64°
2026-04-29 12:57 24.92138 46.88659 10900 ft 349 kts 64°
2026-04-29 12:58 24.93299 46.91151 11158 ft 382 kts 64°
2026-04-29 12:58 24.94524 46.93836 11834 ft 400 kts 65°
2026-04-29 12:58 24.95774 46.96620 12715 ft 411 kts 65°
2026-04-29 12:58 24.97044 46.99475 13655 ft 419 kts 64°
2026-04-29 12:59 24.98334 47.02391 14542 ft 427 kts 64°
2026-04-29 12:59 24.99514 47.05392 15301 ft 429 kts 76°
2026-04-29 12:59 24.99819 47.08657 16070 ft 431 kts 99°
2026-04-29 12:59 24.99175 47.11865 17013 ft 428 kts 115°
2026-04-29 13:00 24.97805 47.14727 17948 ft 419 kts 130°
2026-04-29 13:00 24.96092 47.17371 18642 ft 428 kts 132°
2026-04-29 13:00 24.94338 47.19998 19378 ft 435 kts 133°
2026-04-29 13:00 24.92505 47.22726 19780 ft 452 kts 132°
2026-04-29 13:01 24.91390 47.24395 20071 ft 459 kts 132°